Theta_e
318 320 326 332 335 335 336 334 333 331 332 333 332 332 332 332 333 333 332 334 335 335 334 333 329 325 321 315 312 310 310 310 310 317 324 329 331 330 328 327 327 330 333 334 334 334 331 326 323 318 314 311 310 310 310 311 311 311 311 313 314 315 317 320 324 326 327 329 329 330 330 329 329 328 327 324 319 314 315 317 318 320 319 319 319
316 317 321 328 333 332 332 331 330 328 327 329 330 331 332 332 332 333 332 332 333 332 332 331 328 324 320 315 312 311 311 310 311 313 318 322 324 323 320 320 323 325 325 325 327 326 323 320 318 314 312 311 310 310 310 311 311 311 312 313 314 315 317 318 320 322 323 326 329 328 328 328 327 327 326 322 316 311 311 311 311 311 311 311 311
315 315 317 323 328 328 327 324 325 324 322 324 327 330 332 332 332 334 333 332 331 330 329 329 326 323 320 315 312 311 311 311 312 314 315 317 317 316 316 318 321 322 320 319 320 320 318 317 314 312 311 310 310 310 310 310 311 311 312 313 315 317 318 319 319 319 319 321 324 325 325 325 325 325 325 319 314 311 310 309 309 309 308 307 306
314 315 317 320 322 322 320 316 316 317 317 319 324 329 331 332 333 333 333 333 332 330 328 326 324 322 319 314 311 312 312 313 315 315 317 317 315 314 315 318 320 320 320 320 320 319 319 315 313 317 315 311 310 310 310 310 310 310 312 314 316 319 320 321 321 321 321 319 321 321 321 321 322 322 320 316 314 312 311 310 309 308 307 307 305
315 315 317 318 319 317 314 312 312 311 313 317 322 329 331 331 333 333 334 333 332 331 325 322 322 321 318 314 313 314 315 315 317 319 320 319 318 316 316 320 322 322 321 322 321 319 317 312 312 317 316 312 311 310 310 309 310 310 312 314 317 319 321 322 322 323 323 323 323 322 322 321 320 321 318 316 314 313 312 311 309 307 306 306 306
315 315 316 316 315 313 311 312 312 313 317 320 323 328 331 332 333 333 333 333 333 330 323 320 321 322 320 319 319 320 318 319 320 321 322 321 321 319 318 321 323 322 320 322 321 317 315 313 315 316 314 313 312 311 309 309 310 311 312 314 317 319 320 322 322 323 323 324 324 323 323 322 321 320 318 316 316 315 314 312 309 307 306 306 306
316 316 316 315 313 311 311 314 316 319 323 326 326 328 331 332 333 333 332 332 332 328 323 321 318 318 320 321 323 322 317 319 320 320 321 321 320 319 320 320 322 322 320 322 321 319 318 319 322 318 317 319 316 313 310 311 311 312 313 314 315 316 318 319 320 321 321 321 320 319 318 317 316 315 315 313 314 314 314 313 309 307 306 306 306
317 316 315 315 314 312 313 316 320 322 326 329 329 329 332 333 333 333 332 331 329 326 323 319 314 315 319 321 322 319 314 317 317 317 319 318 319 319 319 318 320 321 320 323 323 322 323 324 324 320 321 325 322 316 312 312 312 313 313 314 316 315 316 316 317 317 316 316 315 314 313 312 311 313 318 312 310 312 312 311 308 307 307 306 307
317 316 315 315 314 314 315 318 320 324 329 331 331 331 333 333 333 333 331 329 326 324 322 316 315 317 319 321 319 315 312 314 315 316 316 316 318 317 317 317 318 320 320 322 325 325 324 323 322 320 319 321 320 315 311 312 312 313 314 316 317 317 316 316 316 315 314 314 313 312 312 312 313 316 317 311 307 309 310 308 307 307 307 306 307
316 315 314 313 312 314 315 318 320 324 329 331 331 332 333 333 333 332 331 328 324 321 319 318 320 321 321 320 317 314 314 315 316 318 316 316 317 316 318 318 317 318 320 322 326 326 324 322 319 316 313 312 313 312 312 312 312 313 315 317 319 318 317 317 316 315 314 313 313 313 313 313 317 318 313 311 310 308 307 307 308 307 307 307 307
316 315 313 312 311 312 314 317 320 324 329 331 331 332 333 332 332 331 330 327 320 315 316 320 322 322 323 321 320 318 317 316 315 316 315 316 316 316 317 317 317 317 317 321 325 325 324 323 319 315 313 311 312 312 312 313 312 313 315 318 319 319 318 317 315 315 315 314 314 313 314 315 320 322 316 316 317 313 310 308 309 308 309 309 309
316 314 313 311 311 312 314 318 321 324 328 331 332 332 333 332 331 329 327 322 316 314 317 321 320 321 322 319 319 317 315 312 311 312 312 313 312 312 312 312 315 315 315 317 321 322 323 324 319 314 313 311 312 312 312 312 313 313 315 318 318 319 318 317 316 316 315 315 315 314 315 317 321 324 319 319 320 318 316 310 312 311 311 312 311
317 314 312 311 310 312 315 319 322 324 327 331 331 329 330 331 329 327 324 318 314 316 319 320 318 321 322 316 314 314 311 309 309 310 309 310 309 309 309 310 311 311 313 314 316 318 321 322 316 312 312 312 312 312 312 312 313 314 315 317 317 318 317 316 316 316 316 315 316 316 316 318 321 323 320 322 321 317 316 313 314 313 314 314 313
317 314 312 310 310 311 314 317 318 321 325 328 327 325 327 328 326 323 319 314 313 314 317 317 315 318 321 317 314 312 309 309 308 308 308 309 309 309 310 311 312 312 312 312 313 314 316 317 314 312 312 312 312 312 312 312 312 314 315 316 316 317 316 316 316 316 316 316 316 316 317 317 320 323 321 323 320 316 316 315 315 315 316 316 316
317 315 312 311 310 310 311 312 313 316 321 324 322 321 323 322 319 316 315 312 310 310 312 314 313 314 318 321 319 313 310 310 308 308 308 308 309 310 312 312 313 314 313 312 312 312 313 313 312 312 312 312 312 312 312 313 313 314 315 316 316 316 316 316 317 317 317 317 317 317 317 317 319 323 321 322 322 319 319 317 317 317 317 318 318
318 316 314 312 310 310 310 310 311 312 316 319 318 318 318 316 313 312 312 311 309 309 309 310 310 311 316 321 319 314 312 310 308 308 308 309 310 311 313 313 313 313 313 313 312 312 312 312 312 312 313 313 313 313 313 314 315 315 316 317 317 317 317 317 318 318 318 318 318 318 318 318 318 322 322 322 323 323 322 320 319 319 319 318 320
320 318 316 313 311 310 310 309 310 310 312 314 315 316 315 314 312 311 311 309 308 309 309 309 309 310 313 316 314 312 311 309 308 308 309 310 311 313 313 313 314 314 314 314 313 313 313 313 313 313 314 314 314 315 315 315 316 316 317 317 317 318 318 318 318 318 319 318 319 319 319 319 318 320 322 323 323 323 322 321 321 321 320 319 320
322 319 317 314 311 310 310 309 309 310 310 311 313 314 314 313 312 311 310 309 309 309 309 309 309 309 309 310 310 310 310 309 308 308 309 311 312 314 315 315 315 315 315 315 314 314 314 314 315 315 315 316 316 316 316 316 317 317 317 318 318 319 319 319 319 319 319 319 319 319 319 319 319 319 321 323 322 322 322 322 322 321 321 320 320
323 320 319 316 313 310 310 310 309 310 310 311 311 312 312 311 311 310 310 309 309 309 309 309 309 309 308 308 308 308 309 308 308 309 310 312 313 315 315 316 316 316 316 315 315 315 316 316 316 316 316 317 317 317 317 317 318 318 319 319 319 320 320 320 320 320 320 320 320 320 320 320 320 319 320 322 322 323 323 323 322 321 322 321 321
326 322 320 319 316 312 310 310 310 310 310 310 310 310 310 310 310 309 309 309 309 309 309 309 309 308 308 308 308 308 308 308 308 309 310 312 314 315 316 316 316 316 316 316 316 316 317 317 317 317 317 317 318 318 318 319 319 320 320 320 321 321 321 321 321 321 321 321 321 321 320 320 320 319 320 321 322 323 324 323 322 322 322 322 321
328 325 322 321 319 315 312 310 310 310 309 310 309 309 309 309 309 309 309 309 309 309 308 309 308 308 308 308 308 308 308 308 308 309 311 313 314 315 315 316 316 317 316 317 317 317 317 317 317 317 318 318 318 319 319 320 320 321 321 321 322 322 322 322 322 322 322 322 321 321 321 321 320 320 319 321 322 323 323 322 322 322 322 322 321
329 328 325 323 321 319 317 314 312 311 310 309 309 309 309 309 309 309 309 309 309 309 309 308 308 308 308 308 308 308 308 308 309 310 312 313 314 315 316 316 317 317 317 317 317 317 318 318 318 318 318 319 319 320 320 321 322 322 322 323 323 323 322 323 322 321 321 321 320 319 319 320 321 320 319 320 322 322 322 321 320 321 322 322 322
329 329 327 324 323 322 321 319 316 314 312 311 310 310 309 309 309 309 309 309 309 308 309 309 308 308 308 308 307 307 307 308 309 310 312 313 314 315 316 316 316 317 317 317 317 317 318 318 319 319 319 320 320 321 321 322 322 323 323 324 324 323 323 323 322 320 320 319 319 319 319 320 321 321 319 319 320 320 320 319 318 320 321 322 323
329 329 328 326 324 323 322 322 321 319 316 314 312 312 311 310 310 310 310 310 309 309 309 309 309 309 308 308 308 307 307 308 309 311 312 314 315 315 316 316 317 317 317 317 318 318 318 319 319 320 320 320 321 322 322 323 323 323 323 323 323 322 322 322 322 321 321 321 320 320 320 321 321 321 321 319 319 319 319 319 319 319 320 320 321
329 329 329 327 326 324 323 323 323 323 320 317 314 313 313 311 311 310 310 310 310 310 310 310 309 309 308 307 307 307 307 308 310 311 313 314 315 316 316 316 317 317 317 317 318 318 319 319 320 320 321 321 322 323 323 323 322 321 321 322 321 321 321 320 321 321 322 323 322 322 322 322 321 321 321 320 319 319 319 320 320 320 320 320 319
329 329 329 329 327 325 323 323 324 324 324 321 317 315 315 314 313 311 310 310 310 310 310 310 310 310 309 308 307 307 308 309 310 312 314 315 315 316 316 316 317 317 317 318 318 319 319 320 320 321 322 323 323 324 323 321 320 320 320 320 319 319 319 319 319 320 322 323 322 321 321 321 321 320 320 319 319 319 319 320 320 320 321 321 321
329 329 329 329 328 326 324 324 324 325 325 323 320 317 316 317 316 314 312 311 311 311 312 312 311 311 311 310 309 308 308 310 311 313 314 315 315 316 316 316 317 317 318 318 319 319 320 321 322 322 323 324 324 324 322 321 320 320 319 318 318 318 317 318 318 319 321 321 321 321 321 321 320 319 319 319 319 319 319 319 319 319 320 320 321
329 329 329 330 330 329 326 324 324 325 325 324 323 319 316 317 317 317 315 313 313 313 313 313 313 312 312 312 312 310 311 312 312 314 315 315 316 316 317 317 317 318 318 319 320 321 322 322 323 323 324 324 324 323 322 321 320 319 318 317 317 317 317 318 319 320 320 321 320 320 320 321 321 320 319 319 319 319 319 319 319 319 319 320 321
329 328 329 329 330 330 328 326 325 325 325 325 324 321 318 317 318 318 318 316 315 314 314 315 315 315 314 314 313 313 313 314 314 315 315 316 317 317 318 318 319 319 320 321 321 322 323 323 324 324 324 325 324 323 322 321 319 319 317 317 317 318 318 319 320 320 321 321 321 320 319 320 321 321 320 319 319 320 320 320 320 320 320 321 321
329 329 330 330 330 331 330 328 327 327 326 325 324 323 320 319 319 319 319 320 318 316 315 316 317 318 317 317 315 315 316 316 316 317 317 318 319 320 320 321 321 321 322 323 323 323 323 324 324 324 325 325 324 323 322 320 319 318 317 317 318 319 320 321 321 322 322 321 321 320 319 318 319 320 320 320 320 320 320 320 320 320 320 321 322
329 329 330 330 330 331 331 330 329 328 327 325 324 323 322 321 321 320 320 320 320 319 317 317 318 319 319 320 319 318 319 318 319 320 320 320 321 322 322 322 323 323 323 323 324 323 324 324 324 324 324 325 324 322 320 319 319 318 318 318 320 321 321 322 322 321 321 321 320 319 318 318 318 318 318 318 318 319 319 319 319 319 319 320 321
329 329 330 330 330 330 331 330 329 328 327 325 324 323 322 323 323 321 321 321 321 320 319 318 318 320 320 321 321 321 321 321 321 321 321 322 322 322 323 323 323 323 323 323 324 323 324 324 323 324 324 324 324 322 319 319 318 318 318 320 320 320 320 320 320 319 319 321 320 319 317 318 318 317 317 317 317 317 318 318 318 318 319 319 320
328 329 330 329 329 330 331 330 329 328 327 325 325 324 323 323 323 322 322 321 321 321 320 320 319 320 321 321 322 322 322 322 322 322 322 323 323 323 323 323 323 323 323 323 323 324 323 323 323 323 323 322 320 319 319 319 319 319 320 320 319 319 318 318 319 318 319 320 320 318 317 317 317 316 317 317 317 316 316 316 316 317 318 318 318
327 327 328 328 327 329 330 330 329 328 327 326 325 325 324 323 322 322 322 321 321 321 321 321 320 321 321 321 322 322 322 323 323 323 323 323 323 323 323 323 323 323 323 323 323 323 322 321 321 320 319 319 318 318 319 319 319 319 320 319 318 318 317 318 319 319 320 319 318 317 316 316 315 315 316 316 315 314 313 313 313 314 314 315 314
326 326 327 327 327 328 330 330 329 328 327 327 326 325 325 324 323 322 322 322 322 321 321 321 321 321 321 322 322 323 323 323 323 323 323 323 323 323 323 323 322 322 322 322 321 321 321 320 320 319 318 317 318 319 319 320 319 319 319 319 318 318 318 318 318 320 321 319 316 315 315 314 314 314 313 313 312 311 310 309 309 310 310 310 310
325 325 326 326 327 328 329 329 328 328 328 327 327 327 327 325 324 323 322 323 322 321 322 322 322 322 322 322 323 323 324 324 324 324 324 324 323 323 324 323 322 320 320 320 320 320 320 319 319 319 317 317 319 319 318 319 319 318 318 319 319 319 320 318 316 318 319 316 314 314 313 313 312 311 310 309 308 307 305 305 305 305 305 304 304
323 324 325 325 326 327 327 327 327 328 327 327 328 328 328 327 326 324 323 323 322 322 322 323 324 324 324 324 324 324 324 324 324 324 324 324 324 323 323 322 321 320 320 320 321 321 319 319 319 319 318 318 318 318 317 318 318 318 317 318 318 318 319 317 314 315 316 313 313 312 311 311 310 308 306 304 303 302 302 301 301 301 300 300 300
322 323 324 324 325 326 326 326 326 326 327 327 327 328 328 328 327 325 324 323 322 323 323 324 325 326 326 325 325 325 324 324 324 324 324 324 324 324 323 322 322 321 320 321 322 322 320 319 320 319 319 319 319 319 318 318 319 318 317 316 315 316 315 314 313 313 313 312 311 310 309 308 306 304 302 301 300 300 300 300 300 299 299 299 299
321 322 323 324 325 326 326 327 326 326 326 326 326 327 328 328 328 326 325 324 324 323 323 325 326 327 326 326 325 325 324 324 323 323 323 323 323 323 323 322 321 321 321 322 324 323 321 320 321 320 320 320 320 321 319 319 319 317 315 314 314 314 313 313 313 311 311 310 309 308 306 304 302 301 300 300 299 299 299 299 299 299 299 299 299
320 321 322 323 324 325 326 327 327 326 326 326 326 326 327 327 327 327 326 325 325 325 325 325 326 326 326 326 326 325 324 324 323 323 323 323 323 322 323 323 322 322 323 323 324 323 320 320 320 318 319 321 322 321 319 318 317 316 314 313 313 312 312 312 311 309 309 308 307 305 303 301 300 300 300 299 299 299 299 299 299 299 298 298 298
319 320 321 321 322 323 324 325 326 326 326 325 325 325 325 326 326 326 325 326 327 326 326 325 325 325 325 325 325 325 325 324 323 324 323 324 324 323 324 323 323 324 324 323 322 321 320 320 322 321 320 322 324 321 318 316 316 315 313 312 312 311 311 311 308 308 308 306 304 303 301 300 300 300 299 299 299 298 298 298 298 298 298 298 298
317 318 319 319 321 321 322 323 324 325 325 324 324 324 324 324 325 325 325 326 326 326 326 325 324 323 323 323 325 325 325 325 324 324 324 324 324 324 324 323 323 324 323 321 319 320 322 322 323 324 321 320 324 322 317 316 316 313 311 310 310 310 310 308 306 307 306 304 303 302 300 300 300 299 299 299 298 298 298 298 298 298 298 297 297
316 316 317 318 319 320 320 321 323 324 324 324 323 323 323 324 325 325 325 326 326 326 326 325 325 324 323 323 324 325 325 325 325 325 325 325 324 324 324 323 324 324 322 320 320 320 324 324 325 327 324 319 321 320 316 315 314 312 310 309 309 309 308 307 306 306 304 302 301 300 300 300 299 299 299 299 298 298 298 298 298 297 297 297 297
315 315 316 317 317 318 319 320 321 322 323 323 323 323 324 325 326 326 327 327 327 326 327 327 326 325 325 324 325 326 325 325 325 326 325 324 323 322 322 323 323 322 321 321 322 321 321 323 324 326 322 316 316 316 315 313 312 310 309 308 309 308 306 305 305 305 303 302 301 300 300 300 299 299 299 298 298 298 298 298 297 297 297 296 296
314 313 314 315 315 316 317 318 319 320 321 322 323 324 326 327 328 329 329 329 328 327 328 328 328 328 326 324 325 325 325 325 324 324 323 323 322 321 321 323 323 323 322 321 323 324 322 322 323 321 318 315 314 314 313 311 309 308 307 306 308 307 304 302 302 303 303 302 301 300 300 299 299 299 299 299 298 298 298 298 297 297 296 296 296
313 313 313 313 314 315 315 316 317 318 319 321 323 324 326 327 329 330 330 329 328 326 326 327 327 327 324 322 322 322 324 325 323 323 325 324 322 321 322 324 324 325 325 323 324 327 325 322 321 318 316 315 315 313 311 309 307 306 304 304 304 303 301 299 299 300 300 300 300 299 299 299 299 298 298 299 298 298 298 297 297 296 296 296 295
313 312 312 313 313 314 314 315 316 317 318 319 321 324 325 326 328 329 330 329 326 324 323 324 325 324 323 322 320 319 321 322 321 325 328 324 320 321 324 325 325 326 327 324 322 323 321 317 316 314 313 313 312 310 308 306 305 303 302 301 300 299 298 298 298 297 298 299 299 298 298 298 298 298 298 298 298 298 297 297 297 296 296 295 295
313 312 312 312 312 313 313 314 314 315 316 317 319 322 324 325 327 329 329 329 327 325 324 325 325 324 325 324 322 322 321 319 318 323 328 324 320 321 324 326 327 326 326 323 319 317 316 315 313 312 311 309 308 306 304 303 302 301 300 299 298 298 297 297 297 296 296 297 298 298 298 298 298 297 297 297 297 296 296 296 296 295 295 295 295
313 312 312 312 312 313 313 313 313 314 315 316 318 320 322 324 326 328 329 328 327 327 327 328 328 328 327 326 324 324 322 319 318 321 324 323 320 320 322 323 324 323 323 321 317 315 315 314 312 310 308 306 304 303 302 301 300 299 299 299 298 298 297 297 297 297 296 296 297 298 297 298 298 298 297 296 296 295 295 295 295 294 294 294 294
312 313 312 312 313 313 313 313 313 314 314 315 317 319 321 323 325 327 328 328 328 328 328 329 329 328 328 327 326 324 322 321 319 318 319 319 318 321 322 321 319 318 317 317 316 315 314 312 309 306 305 303 302 301 300 300 300 299 299 299 298 298 297 297 297 297 297 296 297 297 296 297 297 298 297 296 296 295 295 294 294 294 294 294 294
313 313 313 313 313 313 313 313 313 313 314 315 316 318 320 322 324 325 326 327 327 328 328 329 329 328 328 327 326 325 324 322 320 320 322 322 320 320 320 320 318 316 315 314 313 312 310 308 306 304 303 302 301 300 300 300 299 299 299 298 298 297 297 297 297 297 297 296 296 296 296 296 297 297 297 296 296 295 295 294 294 294 294 294 294
Wind_Speed
16 15 13 11 11 9 8 8 8 8 7 6 6 6 6 7 6 6 6 6 7 7 6 6 5 5 5 5 7 8 9 8 9 11 11 10 9 8 9 9 10 10 9 8 6 4 3 3 3 5 8 10 11 11 11 12 12 11 11 10 11 11 11 12 13 14 14 15 15 16 16 16 16 14 13 12 10 10 11 11 10 9 9 8 7
15 16 15 13 11 10 9 8 8 7 7 7 6 5 6 6 6 6 5 5 5 5 4 3 4 4 4 5 6 7 8 9 11 11 10 9 8 7 7 8 8 8 8 7 6 5 5 6 8 8 10 10 11 11 12 12 12 11 11 10 10 10 11 11 11 11 11 11 13 13 13 12 12 10 9 8 8 9 10 10 9 7 7 7 6
14 15 15 14 12 10 9 7 7 7 6 7 6 6 6 6 6 6 5 4 4 4 2 2 3 3 3 4 6 7 9 10 11 11 10 10 9 8 8 8 8 8 8 8 9 9 8 10 11 11 10 10 11 11 12 12 12 11 11 10 10 11 11 11 11 10 9 9 9 9 9 9 8 7 5 5 7 8 10 10 9 8 8 8 8
14 14 13 12 11 9 7 6 5 5 6 7 7 6 6 6 5 5 4 4 3 3 2 2 3 3 2 4 6 7 10 10 10 11 11 11 10 10 10 10 9 10 10 10 11 11 11 12 12 11 11 11 11 11 12 12 12 12 11 11 11 11 11 10 10 10 9 8 7 6 6 6 6 7 5 4 6 9 10 10 10 9 9 9 10
13 13 12 11 9 8 7 6 5 5 7 8 8 8 6 6 5 5 4 3 2 3 2 3 4 4 4 5 7 8 10 10 10 11 11 11 11 11 11 11 11 11 11 12 12 11 11 11 12 11 11 12 12 12 13 13 13 13 12 12 11 11 10 9 9 8 8 7 6 4 5 5 6 7 7 6 6 8 9 10 10 9 10 10 11
12 11 11 11 9 9 8 7 6 7 8 9 10 9 7 6 6 5 4 3 3 3 3 5 6 7 7 8 9 9 11 11 11 12 12 12 11 11 11 12 12 11 12 12 12 11 11 11 12 12 12 12 13 14 14 14 14 14 14 13 12 11 9 9 8 7 6 5 4 4 5 7 7 7 9 8 7 7 8 9 9 9 10 10 11
12 10 10 10 10 9 9 8 8 9 9 9 10 10 8 7 7 5 4 4 3 3 4 6 8 9 8 9 10 10 12 12 12 12 12 11 10 11 11 12 12 11 12 12 11 11 12 13 13 13 14 13 14 14 15 15 16 16 15 14 12 11 11 10 9 8 7 7 7 7 8 8 8 8 9 8 7 7 7 8 8 9 9 10 10
12 11 10 9 9 9 8 9 8 9 9 10 10 9 8 7 7 4 3 4 3 3 4 6 7 9 8 9 10 11 12 11 11 11 11 11 10 11 11 11 11 10 11 12 11 12 13 14 14 13 15 14 13 14 15 16 16 16 15 15 14 13 13 12 11 10 9 9 9 9 9 9 9 8 9 9 8 6 6 7 8 8 9 10 11
13 11 10 9 9 8 8 9 9 9 10 10 10 9 8 7 6 5 4 4 4 4 5 7 8 9 9 8 11 12 11 10 11 11 11 11 11 11 11 10 10 10 10 11 12 12 12 12 13 13 13 13 11 13 15 16 17 17 17 16 16 15 15 14 13 12 11 11 11 11 11 11 11 10 9 10 10 8 6 7 7 8 9 10 12
13 12 11 10 9 9 8 9 9 10 11 10 9 8 8 6 5 4 3 3 3 4 6 9 9 10 10 9 11 12 11 11 11 11 11 11 11 11 11 10 10 10 10 11 11 12 11 11 12 12 12 12 12 14 16 16 17 17 17 17 17 16 16 16 15 14 14 14 14 14 13 11 11 11 10 10 9 8 7 8 8 8 10 11 12
12 12 11 10 9 9 9 9 10 10 11 10 8 8 7 5 4 2 1 2 2 3 5 8 8 9 11 11 11 11 11 11 11 11 11 11 11 11 11 11 10 10 10 11 11 11 11 11 11 12 13 13 14 15 16 16 17 18 17 17 17 16 16 16 16 16 16 16 16 16 15 12 11 10 10 11 10 9 9 9 10 11 11 12 12
12 11 11 10 10 10 10 10 10 10 10 9 9 7 6 4 3 2 1 1 2 5 7 7 7 9 10 10 12 12 12 11 11 11 11 11 11 11 11 11 11 10 10 10 10 10 10 11 11 13 14 14 14 14 15 16 17 17 17 17 16 16 16 16 16 17 17 18 17 18 17 15 12 10 10 11 10 9 9 11 13 13 14 13 14
11 11 10 10 10 10 11 10 9 10 10 9 8 6 5 5 3 3 2 2 4 6 7 7 7 10 9 9 10 11 12 11 10 10 11 11 11 11 10 10 10 10 10 10 10 10 11 11 11 12 13 13 14 14 15 16 16 16 16 16 16 16 16 16 17 17 18 18 18 18 19 17 14 11 11 11 10 9 9 13 14 15 16 15 16
10 10 10 10 10 10 10 9 9 9 10 9 7 5 5 5 3 3 2 4 5 6 7 5 6 9 9 9 9 10 11 10 10 10 10 11 11 11 10 10 10 10 11 11 11 11 12 11 10 11 12 13 14 14 15 15 15 15 15 15 15 15 15 15 16 17 17 17 17 17 18 17 14 11 12 11 10 10 10 15 16 17 19 18 18
9 10 9 9 10 10 10 9 8 8 9 8 6 4 4 5 4 4 3 4 5 6 7 5 6 9 11 10 9 10 10 10 10 10 10 10 11 11 11 11 11 12 12 12 12 12 12 11 11 12 13 14 14 14 14 14 14 14 14 14 15 14 14 15 15 15 16 16 16 16 17 16 15 11 12 11 11 12 11 16 19 19 21 20 19
9 9 8 8 9 9 10 9 9 9 9 8 6 4 3 5 5 4 3 3 5 6 6 5 5 9 11 10 9 10 9 10 11 10 10 10 10 11 12 12 12 12 12 12 12 12 12 11 12 12 13 13 14 13 14 14 14 14 14 14 14 14 14 14 14 14 14 15 15 15 16 16 16 12 11 12 13 14 13 17 20 17 19 21 22
9 8 7 7 7 9 10 9 9 9 8 7 7 5 3 4 4 4 3 3 4 5 5 5 5 7 8 9 9 9 9 10 11 10 10 9 10 11 11 12 12 12 12 12 12 12 12 12 13 13 13 13 13 13 13 13 13 13 13 13 13 13 13 14 14 14 14 14 14 14 14 14 15 12 10 11 12 14 14 17 18 15 18 21 24
9 8 8 6 7 8 9 9 9 8 8 7 7 6 4 3 4 4 4 4 4 5 5 5 6 7 7 8 8 8 9 10 10 10 9 9 10 11 11 12 12 12 12 11 11 12 12 13 13 13 12 12 12 12 12 12 12 12 12 12 12 13 13 14 14 14 14 14 14 14 14 13 14 13 10 10 11 13 15 17 18 17 20 21 23
10 8 8 7 7 8 9 9 9 9 7 7 6 5 4 4 4 4 4 4 4 4 5 5 6 7 7 8 8 9 9 10 10 9 9 9 10 10 11 11 11 12 11 11 12 12 13 13 13 12 12 11 11 11 11 11 11 12 12 12 13 13 13 14 14 14 14 14 14 14 14 14 14 15 11 9 10 12 14 17 18 19 20 19 21
11 10 9 8 7 8 9 9 9 9 7 7 6 6 5 5 5 5 4 4 4 4 5 5 6 6 7 8 8 9 10 10 9 9 9 9 10 10 10 10 11 11 11 11 11 12 12 12 12 11 11 10 10 10 10 11 11 12 12 12 13 13 13 14 14 14 14 14 14 14 14 14 14 15 12 10 10 10 12 14 16 17 18 19 20
15 13 11 9 8 8 8 8 9 8 7 7 6 6 5 5 5 4 4 4 4 4 5 5 6 6 7 8 8 9 9 9 9 8 8 9 9 9 9 10 10 10 10 10 11 11 11 11 10 10 9 9 9 9 9 10 10 11 11 12 12 13 13 13 13 12 12 12 13 13 13 14 14 15 13 10 9 10 11 12 13 14 17 19 19
18 16 13 11 9 8 7 8 8 8 8 7 6 6 5 5 5 4 4 4 4 4 5 5 6 6 6 7 8 8 8 8 8 8 8 9 9 9 9 9 9 9 9 9 10 10 10 9 8 8 8 7 8 8 9 9 10 10 11 11 11 12 12 12 12 12 11 11 12 12 13 13 13 14 13 10 9 10 11 11 12 13 15 17 17
20 18 16 13 11 9 8 7 7 7 7 7 6 5 5 5 5 5 5 4 4 4 4 5 5 6 6 6 7 7 8 8 8 8 8 8 8 8 8 8 8 8 8 8 8 8 8 7 6 6 6 7 7 7 8 9 9 10 10 10 10 11 11 11 12 12 13 13 13 14 14 14 14 13 13 12 11 10 11 11 11 11 13 16 16
22 19 17 15 14 11 10 8 7 6 6 6 5 5 5 5 5 5 5 4 4 3 4 4 5 6 6 6 6 6 7 7 7 7 7 8 7 7 7 7 7 7 7 7 7 6 5 5 5 5 5 6 7 8 8 9 9 9 9 9 9 9 10 10 11 12 13 14 15 15 16 16 15 15 14 13 13 12 12 13 12 12 12 13 15
23 21 19 17 16 14 12 10 8 6 5 5 5 4 4 4 4 5 4 4 4 4 4 4 5 5 6 5 5 6 6 6 6 7 7 7 7 6 6 6 5 5 5 5 4 4 3 3 4 4 5 6 7 7 8 8 8 8 8 8 9 9 9 10 11 12 13 14 15 16 16 16 17 17 16 15 15 14 14 14 14 14 14 14 14
24 22 21 19 17 15 13 11 9 7 6 5 5 5 4 4 4 4 4 4 4 3 3 4 5 5 6 5 5 5 5 6 6 6 6 7 6 6 5 4 4 3 3 2 2 2 3 3 4 5 6 7 7 8 8 8 9 9 9 10 12 12 12 12 12 11 12 14 15 16 16 16 17 17 17 17 17 16 16 16 16 16 16 16 16
24 23 21 20 18 16 14 13 11 9 8 6 5 5 4 4 4 4 4 4 4 4 3 4 5 5 5 5 5 5 5 6 6 6 6 6 5 5 4 3 3 2 1 1 2 3 4 5 5 6 7 7 8 9 10 11 11 12 12 13 14 14 15 14 12 11 11 13 14 14 15 16 16 16 16 16 16 16 17 16 16 16 17 17 17
23 23 22 21 19 17 16 15 13 11 9 7 6 5 5 3 3 3 3 4 4 4 4 4 4 4 5 5 5 5 5 5 5 5 5 5 4 4 3 2 2 1 2 3 4 5 6 6 7 8 8 8 9 11 12 13 14 16 16 15 15 14 14 13 11 11 12 13 14 14 15 16 16 15 15 15 15 16 16 16 17 17 18 18 18
24 23 23 22 20 18 17 15 14 12 10 9 7 5 5 4 3 3 3 4 4 4 4 4 4 4 5 5 5 5 5 5 5 5 4 4 4 3 2 2 2 3 4 5 6 7 8 8 9 9 9 9 10 12 14 15 16 17 18 16 15 14 13 13 12 12 13 14 15 16 15 15 15 15 15 15 15 16 16 17 18 19 20 20 21
24 24 23 22 20 18 17 16 14 13 11 9 8 7 6 5 4 3 3 3 3 4 4 4 4 4 5 5 5 6 6 6 6 5 5 4 4 3 3 4 5 5 6 7 8 8 9 10 11 11 12 11 12 14 16 17 17 17 17 15 13 13 13 13 13 12 13 15 16 16 15 15 15 16 16 17 17 17 18 19 20 21 21 22 22
24 24 24 22 20 19 17 16 15 13 12 10 9 8 7 6 6 6 5 4 4 4 4 5 5 5 5 5 5 5 5 5 5 5 5 5 5 5 5 6 7 7 8 9 10 11 12 13 13 13 14 14 15 17 18 17 16 16 14 12 11 11 12 12 12 12 13 14 16 16 15 15 15 16 17 17 18 19 19 20 21 22 22 22 23
24 24 23 22 20 19 18 16 15 14 13 12 10 10 9 8 8 8 8 7 7 6 5 6 6 6 6 6 6 6 6 6 6 6 6 7 7 7 8 9 10 10 11 11 12 13 14 15 16 16 16 17 18 17 15 14 13 12 11 10 10 11 12 13 13 13 13 14 15 15 15 15 15 15 16 17 17 18 18 19 20 21 22 22 23
24 23 22 23 21 19 19 17 17 16 14 13 12 11 10 10 9 9 9 10 9 8 8 7 8 8 8 8 8 8 8 8 8 9 9 10 10 11 11 12 13 13 13 14 15 15 16 17 18 17 17 16 15 12 10 9 9 9 10 10 11 12 13 12 13 13 13 13 14 15 14 14 15 16 16 16 16 16 17 19 19 20 21 22 22
24 23 23 23 22 20 20 19 18 17 16 15 14 13 12 11 10 10 11 11 11 10 10 10 10 10 10 10 10 11 11 11 11 12 12 13 13 14 14 15 15 15 15 15 16 16 16 16 16 16 15 14 12 8 6 7 7 7 8 9 10 11 12 12 13 13 13 13 14 13 13 14 17 16 15 14 15 16 17 17 18 18 18 19 20
24 24 24 23 22 22 21 20 19 18 18 17 15 14 13 12 12 12 12 13 13 12 12 12 12 12 12 12 12 13 13 13 14 14 15 15 15 15 15 15 15 14 13 13 13 13 14 14 13 14 14 13 9 5 5 6 8 9 7 7 8 10 11 13 14 14 13 13 12 12 13 15 16 14 14 14 14 15 16 16 16 16 16 17 18
24 23 22 22 23 23 22 22 21 20 19 18 17 16 15 14 13 14 14 15 14 14 13 13 13 13 14 14 14 15 15 15 15 15 15 15 15 14 12 13 14 12 10 10 10 10 11 11 11 13 12 10 6 5 6 9 12 12 8 7 8 10 12 14 14 14 13 12 11 12 14 14 14 14 15 15 15 16 16 17 17 17 17 17 18
24 23 22 23 23 23 23 23 22 22 21 19 19 18 17 16 15 15 16 16 16 15 15 14 14 14 15 15 16 16 16 15 14 14 14 14 13 12 11 12 13 10 8 8 9 11 10 9 8 9 9 8 7 7 8 11 13 13 11 10 11 11 12 13 13 12 11 12 12 13 13 13 14 15 15 16 16 17 16 16 17 17 18 18 18
25 25 24 24 23 23 24 23 23 22 21 21 20 20 19 18 17 17 17 18 18 17 17 16 15 15 15 15 16 16 15 14 13 13 13 12 12 11 12 13 12 10 8 8 10 13 12 8 5 6 7 7 8 10 11 12 12 13 13 14 14 12 12 12 11 10 12 13 13 12 14 15 15 15 16 17 17 17 17 16 17 17 18 19 19
27 27 26 26 25 25 25 24 23 22 22 22 21 21 21 20 20 19 19 19 19 19 18 17 15 15 15 15 15 15 15 14 12 12 12 12 12 11 11 12 10 9 9 8 9 13 12 7 4 5 7 8 9 11 13 13 13 15 15 14 13 11 11 10 9 11 13 13 12 13 15 16 15 15 17 18 18 18 18 18 19 19 19 19 19
28 28 28 28 28 27 27 26 25 24 23 23 22 23 23 23 23 22 22 21 19 19 19 18 17 17 17 16 15 15 16 15 12 12 12 11 11 9 8 10 9 8 8 8 10 12 10 7 6 9 9 10 11 12 14 13 14 16 14 13 12 11 10 8 10 13 13 12 13 15 17 16 15 17 18 19 20 20 20 21 21 21 21 20 19
29 30 30 30 30 29 29 28 27 25 25 25 25 25 25 25 25 24 24 22 20 20 20 20 19 19 18 17 16 15 16 15 12 12 11 11 12 10 9 9 8 9 10 9 10 10 7 6 9 10 11 11 12 14 15 14 16 17 15 14 11 10 9 9 13 14 11 12 14 16 17 16 16 19 20 21 21 21 22 23 23 23 22 21 21
28 30 31 31 31 30 31 30 28 27 27 26 26 27 27 26 25 25 23 21 20 21 21 20 18 18 19 19 17 17 17 16 14 13 13 14 14 14 12 10 10 11 11 10 9 8 7 8 11 11 11 12 12 14 15 14 16 17 16 15 11 9 8 10 14 12 11 14 15 16 17 17 18 21 22 22 22 22 23 24 24 23 21 21 22
27 29 30 30 31 31 32 31 30 30 28 27 28 28 27 25 24 22 20 19 20 20 20 19 17 17 19 19 18 18 18 17 15 14 14 16 16 15 14 12 12 11 10 9 8 8 9 11 13 13 13 13 12 13 14 13 14 13 13 13 11 10 9 12 15 11 12 16 15 17 17 17 20 22 22 23 23 23 24 25 24 22 21 21 22
28 30 30 30 31 32 33 32 31 31 30 29 28 27 26 23 22 21 19 19 19 19 19 19 19 19 18 18 18 18 18 17 17 17 18 18 16 14 14 12 10 9 9 9 10 10 10 11 13 13 14 13 12 12 12 12 11 10 10 9 9 10 10 14 16 12 13 15 14 17 18 19 21 22 23 24 24 25 25 25 24 22 21 22 22
31 30 30 30 31 31 32 32 32 32 31 30 29 27 26 25 24 23 22 22 21 21 21 21 21 21 19 18 18 19 19 17 16 17 19 18 15 12 11 10 9 10 11 12 13 13 12 13 14 15 16 15 12 12 12 9 8 8 9 8 6 7 9 16 16 12 13 14 13 15 17 19 22 23 24 24 24 26 26 25 23 21 22 22 22
32 30 29 30 30 30 31 32 32 32 32 31 30 29 29 27 27 26 26 26 25 25 24 23 23 23 20 17 17 19 20 18 16 15 17 16 15 13 11 11 12 13 13 13 14 15 15 15 15 15 15 14 12 11 9 7 7 8 9 9 8 8 10 14 14 14 16 16 15 16 17 20 23 24 24 24 25 26 26 25 22 22 22 23 24
31 29 30 31 31 30 31 32 32 33 32 31 31 32 32 30 29 28 28 27 27 26 24 22 21 20 18 16 16 18 19 19 17 15 16 16 15 14 13 14 14 16 15 14 15 16 15 12 10 10 9 8 6 5 4 5 6 7 8 9 10 10 11 13 13 16 20 20 19 20 22 24 25 26 25 24 26 27 26 24 22 22 23 23 24
29 30 32 32 31 30 31 32 33 33 32 32 33 33 33 32 31 30 29 28 27 25 21 20 19 17 16 16 16 17 18 19 18 18 19 19 17 16 16 16 16 17 17 17 16 14 11 8 6 5 3 2 1 1 2 4 5 6 8 9 10 10 12 13 14 17 21 25 26 26 28 28 27 27 27 27 28 28 26 23 22 24 24 24 25
28 31 33 32 31 31 32 33 33 33 33 33 34 34 34 33 32 30 30 29 26 24 22 21 19 18 18 17 17 19 20 19 18 19 20 20 19 18 19 19 19 19 19 18 15 12 9 7 4 3 2 2 1 2 3 4 4 6 7 8 9 11 12 14 16 19 22 26 29 31 32 33 31 29 29 31 30 29 26 23 24 27 27 27 28
28 30 30 31 31 32 33 33 33 33 33 34 34 34 34 33 33 32 30 29 27 26 25 23 22 21 20 19 20 21 22 19 17 17 18 19 19 20 21 21 19 18 17 14 10 9 7 5 4 4 3 2 2 2 3 3 4 6 7 8 9 11 13 15 18 20 23 25 28 32 33 35 36 33 32 32 32 31 28 26 28 30 31 32 32
27 29 30 30 32 33 34 34 33 32 32 33 34 34 35 35 34 33 31 30 28 28 27 26 25 24 23 22 23 23 22 20 17 15 16 19 20 22 21 19 17 16 13 9 7 7 7 6 6 5 3 2 2 2 3 4 6 7 8 9 10 12 14 16 19 21 24 25 28 31 33 34 36 36 35 34 33 33 31 29 31 33 33 35 35
Wind_Direction
163 160 163 160 142 142 151 156 150 142 135 126 122 124 120 116 117 114 110 101 99 96 89 86 78 79 77 74 86 99 108 108 119 141 145 138 136 129 124 123 125 128 132 130 127 125 98 54 45 47 54 60 64 63 61 61 59 57 59 64 69 74 80 83 83 80 79 78 74 70 66 67 67 65 62 58 56 65 72 72 73 70 72 68 54
160 161 168 170 160 151 162 172 167 158 145 137 135 133 124 121 121 117 116 109 108 101 89 95 88 88 84 76 90 100 111 114 115 132 141 141 138 130 126 121 120 120 128 130 115 102 86 65 69 70 65 66 66 64 61 58 57 56 58 63 68 72 75 80 84 83 82 83 80 77 75 77 78 71 62 44 33 45 55 57 58 52 49 44 31
162 163 168 175 175 169 174 179 177 172 159 150 146 142 131 126 124 120 117 113 109 104 116 116 94 90 86 90 104 109 115 115 112 118 123 127 126 124 122 115 112 106 105 108 97 84 80 73 72 74 71 69 66 64 62 61 61 60 61 63 67 71 72 74 77 78 79 82 83 83 81 82 76 61 40 15 13 26 32 35 38 33 27 21 14
166 165 166 174 181 183 183 179 177 173 167 161 152 147 140 137 128 123 122 115 103 99 125 130 119 111 95 101 105 108 113 113 108 107 108 108 110 109 105 100 98 94 91 90 86 78 74 74 75 77 72 69 70 70 66 64 62 62 64 66 68 70 71 71 72 73 73 76 80 80 74 65 52 38 20 11 9 13 16 16 19 21 19 14 11
166 165 165 172 182 183 177 171 169 158 158 159 154 147 140 143 132 131 136 110 86 72 80 121 130 118 110 112 103 100 106 110 107 102 99 98 97 97 95 92 89 88 87 82 79 75 73 76 80 80 72 68 72 72 67 61 58 60 63 66 68 69 71 71 72 73 74 77 73 63 51 34 22 10 360 5 1 0 6 8 10 15 17 13 10
161 163 165 168 176 175 171 164 154 146 146 152 155 151 141 146 142 145 147 110 79 51 66 115 122 110 109 111 104 103 103 103 100 96 94 95 96 95 94 92 89 85 83 80 78 78 77 78 80 79 74 67 69 71 65 58 56 58 60 62 63 63 63 63 62 60 59 55 42 22 8 357 351 341 335 341 341 344 352 358 7 13 14 13 12
156 162 165 165 167 167 169 156 145 143 138 141 149 153 147 149 149 144 139 116 84 53 87 111 116 112 107 105 106 106 102 98 96 96 96 96 97 95 92 93 92 87 82 81 79 79 75 74 76 73 73 67 66 69 62 56 56 56 56 56 54 54 51 47 42 36 30 21 15 7 359 353 349 343 340 342 340 339 345 354 6 14 14 12 12
153 163 167 166 166 167 168 156 145 141 136 136 141 148 149 152 151 142 129 112 90 88 113 110 110 117 113 105 104 104 102 99 96 96 96 93 91 92 93 95 95 91 86 85 80 76 73 74 76 72 74 72 64 61 55 54 55 55 54 52 50 50 47 42 37 32 28 27 27 21 19 16 13 19 16 19 19 6 2 8 15 15 12 9 7
152 161 166 169 171 171 169 158 147 138 137 138 140 145 151 154 146 134 116 95 91 105 109 104 110 117 117 107 101 103 104 100 96 93 91 90 90 92 95 97 96 92 89 87 81 77 75 74 77 76 77 76 66 53 49 51 52 53 52 52 53 52 49 45 42 40 39 37 35 30 30 28 32 47 39 34 38 30 26 26 22 13 8 4 2
151 157 163 170 172 172 168 159 152 141 139 139 141 150 155 149 139 133 110 78 90 118 100 99 110 114 115 109 104 106 105 97 94 94 91 91 91 91 92 94 94 91 89 88 83 77 72 69 72 74 71 66 58 49 46 47 49 51 51 52 53 53 51 48 47 46 43 40 37 34 32 33 41 47 35 34 38 30 33 28 17 10 6 2 359
148 154 159 167 169 167 163 162 157 144 144 143 142 159 165 150 151 153 121 82 96 132 109 105 111 108 108 105 105 108 107 101 96 96 93 93 92 90 88 88 89 88 88 89 86 78 71 68 66 64 62 56 50 47 45 46 48 49 50 51 51 50 49 47 46 45 43 40 39 37 35 41 48 42 28 30 32 23 26 22 12 8 3 359 357
144 150 155 161 163 163 162 162 156 146 147 148 150 170 179 166 175 170 130 105 113 135 124 117 112 101 100 99 104 105 106 103 97 96 93 94 93 90 86 84 84 82 84 87 87 82 76 72 63 58 57 52 48 47 47 47 48 48 49 48 48 47 46 44 43 41 40 38 36 35 35 41 46 37 24 26 27 24 25 21 15 10 4 359 355
142 146 152 156 161 163 161 160 154 149 149 156 169 183 184 180 181 164 146 127 125 134 129 125 114 104 103 98 102 106 106 105 100 95 93 93 90 86 82 82 83 80 82 82 82 79 78 73 61 57 56 52 49 46 47 49 49 49 48 47 46 45 44 43 41 40 37 35 35 33 33 39 43 31 19 21 24 27 27 23 19 13 7 2 358
140 141 147 155 162 164 161 162 162 159 159 167 184 194 196 189 174 159 161 138 122 119 117 117 109 107 110 99 98 109 110 109 105 98 93 91 87 84 83 83 82 82 83 81 79 73 73 70 62 61 59 54 50 46 47 48 50 51 50 48 47 46 45 43 42 41 38 35 33 33 32 36 42 30 14 16 20 22 24 23 18 10 7 5 3
137 137 143 155 162 163 160 164 171 174 176 182 190 195 191 169 149 147 151 132 110 104 104 95 84 94 106 102 101 112 114 113 109 101 93 88 84 83 83 82 80 80 79 76 75 73 72 70 66 63 60 57 53 50 49 48 49 50 50 49 49 48 45 43 41 40 38 35 32 30 29 28 35 32 13 14 16 9 5 10 6 1 4 6 4
138 136 138 152 157 155 154 158 166 176 186 195 200 193 153 130 125 123 121 117 106 98 94 86 76 88 103 107 111 112 110 111 106 101 94 87 83 82 83 83 82 81 79 78 77 79 79 77 72 65 60 57 56 54 53 52 50 49 48 48 47 46 44 41 38 36 34 32 31 27 24 21 26 30 14 14 12 358 345 349 354 354 358 2 2
141 139 138 143 151 148 148 153 157 167 181 195 203 201 162 127 123 116 109 107 107 101 95 92 89 94 103 107 110 106 107 111 107 104 98 92 90 88 89 88 87 86 83 84 84 85 84 81 76 69 63 58 56 56 55 55 53 50 47 45 43 41 38 36 32 30 28 26 25 23 20 15 17 21 17 13 6 352 341 340 344 345 350 358 0
150 147 143 139 145 144 146 150 153 159 170 182 191 197 193 157 131 116 111 110 113 112 107 103 105 108 109 107 107 103 107 116 114 110 104 99 98 97 97 95 92 89 86 86 86 85 82 79 75 72 68 62 57 53 51 51 50 47 42 38 36 34 31 28 26 23 21 19 18 16 13 10 7 11 17 12 2 351 343 342 342 344 347 351 355
163 158 150 146 142 143 147 147 150 153 158 164 169 173 168 143 121 114 116 120 126 123 121 123 122 119 118 115 112 112 114 119 119 114 110 108 107 107 103 99 96 93 90 88 86 82 78 75 73 70 67 63 58 52 46 43 40 37 34 31 27 26 24 21 20 18 16 14 12 10 7 5 1 3 13 13 6 354 341 342 343 343 340 338 348
173 173 162 155 146 143 150 149 148 147 147 146 145 147 139 128 123 124 128 132 140 135 133 134 131 128 124 124 123 122 120 119 120 118 118 117 113 110 104 101 98 95 93 89 85 81 77 72 70 67 63 59 54 49 43 37 32 29 25 23 21 18 17 15 13 12 11 9 7 6 3 1 359 358 7 10 2 351 337 337 336 335 331 329 342
179 181 173 166 158 149 150 150 148 146 146 142 140 145 140 139 139 135 139 149 155 147 144 138 132 130 128 132 131 125 122 123 127 127 123 118 114 111 107 103 98 96 95 90 86 80 77 71 67 62 57 55 47 42 37 32 28 23 20 17 14 11 9 7 6 6 4 2 360 360 359 358 356 355 1 4 352 342 332 328 327 325 325 324 333
183 184 180 175 169 160 154 146 144 145 147 148 153 159 157 160 158 153 158 164 164 156 147 137 131 130 133 137 133 128 131 135 134 129 124 120 119 116 110 106 102 100 94 88 85 79 76 70 64 57 50 45 37 34 29 24 21 17 14 10 7 4 1 358 356 355 352 352 351 351 355 355 352 351 354 355 342 332 326 321 321 321 323 324 327
187 187 184 180 176 172 166 152 143 142 143 148 155 162 167 174 171 168 170 168 164 158 143 135 134 134 136 137 135 137 139 140 136 128 126 126 125 120 114 110 105 99 93 86 81 76 73 67 59 50 39 32 24 20 16 15 13 10 7 3 1 357 353 352 348 347 346 346 346 345 348 349 347 345 346 347 340 331 328 326 325 323 322 323 322
190 189 187 185 182 180 179 169 157 146 139 141 147 155 165 176 176 171 167 162 157 153 148 142 139 135 136 138 138 140 141 139 135 130 129 130 126 122 118 112 106 97 91 84 77 70 64 55 44 33 22 16 10 6 6 6 4 1 359 351 348 347 345 344 344 345 344 344 343 341 342 342 340 339 337 337 334 330 331 331 329 328 323 319 317
191 191 190 190 187 185 186 182 173 164 152 145 150 157 164 168 167 166 158 154 157 160 160 152 143 135 131 134 135 136 140 140 137 135 133 132 129 124 119 111 104 94 86 80 73 61 43 26 12 4 0 359 357 356 354 351 347 345 344 334 328 329 332 333 336 340 340 340 340 338 337 337 335 333 331 328 326 323 323 324 324 324 323 318 318
194 195 194 192 192 189 189 189 188 184 176 170 168 166 162 157 150 150 147 148 159 168 170 164 150 136 129 126 133 141 145 147 143 141 137 134 130 123 119 111 103 89 78 66 43 20 358 344 340 342 345 346 344 340 335 333 331 330 326 321 322 326 327 325 326 331 334 336 336 335 333 332 331 329 327 325 322 320 317 317 317 317 317 316 317
199 199 197 195 195 193 193 194 196 197 195 192 185 180 173 160 146 139 141 147 153 164 174 167 149 137 134 130 136 151 158 159 155 150 147 139 133 129 129 120 110 91 51 345 324 319 320 320 323 328 334 336 330 323 321 322 321 321 323 324 329 333 329 326 328 335 340 338 335 333 333 332 330 326 325 325 322 319 315 312 311 310 310 311 312
205 203 201 199 199 198 199 197 199 203 205 205 197 194 191 175 153 135 135 144 148 159 164 154 144 142 144 142 145 157 165 167 163 160 158 151 149 152 155 155 159 209 276 288 293 298 305 309 312 318 324 324 318 316 317 319 321 323 328 334 336 335 332 336 345 352 350 342 335 332 331 331 329 325 321 320 318 316 314 312 310 309 308 308 309
209 207 204 204 203 203 203 203 203 205 209 210 207 206 204 198 180 158 141 142 151 163 162 151 147 151 151 152 158 164 169 170 169 173 174 169 176 187 199 220 233 247 264 277 285 291 299 302 306 310 312 311 309 311 313 317 322 324 330 336 337 340 346 354 2 359 351 341 336 333 329 326 323 320 315 313 313 313 313 313 312 310 309 309 308
210 209 206 206 207 208 208 207 207 209 214 215 215 214 214 214 208 202 185 165 173 173 167 168 167 165 161 163 169 173 179 180 179 187 192 194 203 217 237 252 259 265 271 280 284 289 294 295 297 299 301 302 300 303 309 315 321 323 327 333 342 351 354 356 356 349 343 339 336 334 328 323 318 314 311 310 311 310 311 311 311 310 309 307 307
209 209 208 208 210 212 212 211 212 213 217 220 220 219 221 220 219 221 215 210 214 199 185 184 183 186 185 184 187 190 196 198 199 207 215 220 225 236 245 254 264 270 274 279 283 285 286 287 290 294 296 296 295 302 314 320 323 325 330 340 350 352 346 342 341 336 339 341 338 336 331 326 321 318 317 316 315 313 312 312 312 311 309 307 306
210 209 209 211 213 215 215 215 215 217 219 221 222 223 225 222 221 224 223 225 228 223 210 199 197 202 208 212 214 218 220 225 229 234 241 245 248 253 255 256 262 265 269 272 275 279 281 285 289 292 293 292 295 304 317 325 329 337 347 354 349 338 332 332 334 337 341 342 338 335 332 329 329 329 329 328 325 322 320 319 317 314 311 309 308
212 211 212 215 216 218 219 218 219 220 221 222 225 226 227 226 224 224 226 229 229 230 225 218 216 216 219 226 232 237 239 243 248 250 252 253 254 255 256 257 260 263 267 270 273 278 282 288 292 294 295 296 303 311 319 329 337 350 355 351 343 335 335 340 341 343 345 340 333 330 331 333 335 335 336 335 333 330 327 324 321 318 315 313 313
216 215 218 219 220 221 221 222 222 223 224 225 226 228 230 231 229 226 228 231 230 230 229 228 228 227 230 233 238 243 246 249 251 253 254 255 256 257 260 262 265 268 272 276 281 288 293 298 302 305 307 309 319 325 322 327 327 335 345 344 341 340 343 348 345 344 342 336 331 331 334 335 337 340 344 344 339 336 334 334 331 326 322 320 320
219 219 222 223 224 224 224 225 226 226 227 228 230 231 233 235 234 231 230 231 231 229 229 231 233 236 240 242 245 247 248 250 252 254 256 258 261 263 266 269 272 279 287 295 300 305 308 314 319 317 317 319 325 331 321 318 307 312 334 344 341 342 346 346 343 338 334 335 336 336 335 337 345 354 356 353 349 348 349 348 345 341 338 336 335
220 221 222 223 224 225 227 229 229 230 231 232 234 235 237 238 238 236 232 232 230 228 228 232 236 240 242 244 248 249 250 252 255 259 261 263 266 268 272 276 286 300 307 312 322 326 323 326 326 320 323 328 328 323 314 309 308 317 337 343 338 343 346 345 341 336 336 344 345 338 339 349 2 6 2 0 1 2 0 358 357 355 354 351 349
220 221 221 222 223 224 227 231 230 231 233 235 237 238 240 241 242 240 236 232 229 227 227 230 235 239 242 246 248 250 252 254 258 264 267 271 274 280 284 286 300 316 316 322 337 335 332 333 330 329 339 348 341 328 315 310 318 333 345 343 344 351 350 344 339 342 350 352 347 346 357 8 11 9 7 8 8 9 7 4 3 1 358 356 354
222 222 222 223 225 226 229 232 233 233 235 236 239 241 242 242 242 241 238 234 229 227 226 228 233 238 242 247 252 255 256 257 262 265 270 275 278 281 285 292 307 318 316 332 340 330 330 337 337 340 345 350 344 330 320 319 328 339 342 342 347 354 353 346 346 358 1 357 358 4 10 13 14 13 11 10 9 10 10 6 4 1 359 357 356
226 224 224 225 227 228 229 233 235 236 236 237 238 239 240 240 238 236 235 233 229 227 227 228 232 239 242 247 254 259 260 263 266 266 268 275 280 282 286 293 305 316 318 323 320 314 317 320 320 333 336 338 337 326 319 321 328 334 340 344 348 354 354 355 11 12 2 5 13 11 11 15 17 15 11 8 10 11 10 6 3 2 1 1 359
229 228 227 227 228 228 229 231 233 236 238 237 237 235 235 235 234 234 233 231 230 231 232 233 234 236 239 243 250 256 260 265 268 267 267 274 285 294 296 294 296 313 320 307 292 291 297 302 316 330 330 331 332 322 316 318 324 332 341 349 353 360 1 12 25 12 6 16 17 11 12 15 14 11 8 7 9 10 8 5 2 1 1 1 359
232 231 229 228 228 229 230 230 231 234 236 235 234 232 231 230 230 231 232 231 231 234 237 238 239 239 239 240 246 253 258 264 265 264 267 275 282 284 283 285 294 306 305 295 281 279 292 308 318 326 324 320 319 313 313 321 330 335 346 356 2 7 12 24 20 12 15 18 14 12 9 7 8 8 5 5 7 7 4 2 0 0 0 359 358
234 233 232 230 230 230 231 230 230 233 234 235 233 231 231 230 231 232 234 234 233 236 240 243 248 250 247 243 244 250 256 266 269 268 270 270 273 276 276 281 289 291 290 290 284 280 294 305 304 308 312 312 304 302 311 326 333 337 347 354 1 9 19 21 14 12 17 14 13 9 2 1 5 4 2 2 3 2 0 359 359 360 360 359 360
238 237 235 234 233 232 232 231 230 231 232 234 234 231 230 230 233 236 238 239 238 240 244 248 252 254 251 245 243 246 251 259 266 267 267 266 268 269 269 273 276 275 275 282 291 291 289 293 295 291 296 302 294 296 311 324 330 335 342 346 355 3 8 9 9 13 12 12 11 2 356 358 1 1 359 358 358 358 357 358 359 1 2 2 3
239 238 237 235 234 232 232 233 231 231 231 233 233 232 230 230 233 235 238 241 239 239 242 245 246 250 253 246 243 246 249 253 256 257 260 267 270 262 258 261 261 260 265 273 279 286 286 288 289 283 288 296 296 302 315 325 332 336 339 345 355 358 354 355 0 7 9 9 3 354 352 354 357 357 356 354 354 354 356 359 1 2 4 3 3
237 238 237 236 235 233 233 233 233 232 231 232 232 232 230 228 229 232 235 237 236 236 237 238 241 246 251 247 241 242 245 250 253 253 257 263 260 247 242 246 247 252 264 275 274 276 283 283 283 285 290 295 302 311 318 330 343 345 349 358 356 344 343 348 353 357 360 359 353 351 351 350 351 353 353 351 351 352 355 360 2 3 4 3 1
237 237 238 238 238 237 236 235 235 233 232 232 231 232 231 229 229 231 233 233 234 234 233 235 238 244 249 251 246 241 240 242 244 250 256 257 248 238 236 241 250 254 257 270 270 267 272 276 282 290 291 292 298 306 316 337 351 356 3 8 2 346 343 348 348 342 343 349 351 350 349 348 349 351 351 349 348 350 354 357 0 2 2 0 358
238 237 238 239 239 238 238 237 236 235 233 231 230 231 231 231 231 233 234 236 238 237 237 238 241 246 252 254 250 243 240 237 236 240 246 248 242 237 243 249 253 251 250 261 263 257 264 276 290 296 291 287 290 299 325 353 356 4 12 10 8 360 353 352 347 340 339 343 347 348 348 348 349 349 350 350 349 350 354 357 358 359 359 357 353
238 237 237 237 238 238 238 238 237 236 234 232 231 230 231 231 231 233 236 237 240 242 245 247 249 251 251 253 250 247 246 241 234 232 236 245 246 239 243 247 245 245 251 260 262 260 271 288 293 284 272 266 263 329 21 24 12 14 17 11 6 1 354 349 348 347 342 339 343 346 345 343 346 349 350 352 352 352 355 1 1 359 359 356 351
238 235 236 236 236 237 237 238 236 235 234 232 231 231 231 232 232 233 235 237 240 243 246 249 251 248 246 248 247 245 250 250 240 232 233 242 248 245 244 243 242 245 249 254 260 266 274 275 260 229 199 193 147 69 51 43 23 15 13 8 3 355 349 347 348 349 345 341 340 342 341 339 342 348 350 350 351 353 356 2 2 359 357 354 350
236 233 233 233 233 233 235 235 235 234 234 233 231 231 231 232 232 233 234 236 239 241 243 244 245 246 245 246 246 246 250 253 247 239 238 240 242 243 243 244 247 247 245 247 254 255 247 229 206 189 179 166 115 73 57 37 17 9 5 2 357 350 347 349 348 347 345 342 337 337 340 338 339 344 346 346 346 348 350 357 359 356 353 351 347
234 231 230 229 229 230 232 233 234 234 234 233 232 231 231 232 233 233 234 236 237 239 241 241 242 243 243 244 248 248 248 251 249 240 240 244 244 245 246 246 247 244 239 236 229 215 201 193 187 180 173 144 96 60 39 19 8 5 360 356 352 349 350 349 347 345 343 340 336 336 339 338 337 339 341 341 341 342 345 351 354 352 349 347 344